When you browse on this site, cookies collect data to enhance your experience and personalize the content and advertising you see.
Visit our Privacy Policy to learn more. By continuing to use the site, you agree to this use of cookies and data.

Hourly Weather Sukhumi

Today, 16 July, Thursday

Time Temperature Precipitation Wind Pressure Humidity
00:00 +22°C° 0 mm 1 mps 753 mmHg 87%
01:00 +21°C° 0 mm 2 mps 753 mmHg 86%
02:00 +21°C° 0 mm 2 mps 753 mmHg 84%
03:00 +20°C° 0 mm 2 mps 752 mmHg 82%
04:00 +21°C° 0 mm 2 mps 752 mmHg 81%
05:00 +21°C° 0 mm 2 mps 752 mmHg 80%
06:00 +23°C° 0 mm 2 mps 752 mmHg 79%
07:00 +25°C° 0 mm 2 mps 752 mmHg 72%
08:00 +27°C° 0 mm 1 mps 751 mmHg 65%
09:00 +29°C° 0 mm 1 mps 751 mmHg 58%
10:00 +30°C° 0 mm 2 mps 751 mmHg 57%
11:00 +30°C° 0 mm 2 mps 751 mmHg 56%
12:00 +31°C° 0 mm 2 mps 750 mmHg 55%
13:00 +31°C° 0 mm 3 mps 750 mmHg 55%
14:00 +33°C° 0 mm 3 mps 750 mmHg 55%
15:00 +33°C° 0 mm 3 mps 750 mmHg 55%
16:00 +31°C° 0 mm 3 mps 750 mmHg 61%
17:00 +30°C° 0 mm 3 mps 749 mmHg 67%
18:00 +29°C° 0 mm 3 mps 749 mmHg 73%
19:00 +28°C° 0 mm 3 mps 749 mmHg 78%
20:00 +26°C° 0 mm 2 mps 750 mmHg 83%
21:00 +24°C° 0 mm 2 mps 750 mmHg 88%
22:00 +24°C° 0 mm 2 mps 750 mmHg 86%
23:00 +23°C° 0 mm 1 mps 749 mmHg 84%

Tomorrow, 17 July, Friday

Time Temperature Precipitation Wind Pressure Humidity
00:00 +23°C° 0 mm 1 mps 749 mmHg 83%
01:00 +23°C° 0 mm 1 mps 749 mmHg 79%
02:00 +23°C° 0 mm 1 mps 749 mmHg 74%
03:00 +23°C° 0 mm 1 mps 749 mmHg 70%
04:00 +23°C° 0 mm 1 mps 749 mmHg 69%
05:00 +23°C° 0 mm 1 mps 748 mmHg 68%
06:00 +23°C° 0 mm 1 mps 748 mmHg 68%
07:00 +25°C° 0.1 mm 2 mps 748 mmHg 66%
08:00 +27°C° 0.1 mm 2 mps 749 mmHg 64%
09:00 +29°C° 0.1 mm 2 mps 749 mmHg 62%
10:00 +29°C° 0.2 mm 2 mps 749 mmHg 64%
11:00 +30°C° 0.2 mm 2 mps 749 mmHg 66%
12:00 +30°C° 0.2 mm 2 mps 749 mmHg 68%
13:00 +30°C° 0.4 mm 2 mps 749 mmHg 70%
14:00 +30°C° 0.4 mm 3 mps 749 mmHg 73%
15:00 +29°C° 0.4 mm 3 mps 749 mmHg 76%
16:00 +29°C° 0.4 mm 3 mps 749 mmHg 79%
17:00 +28°C° 0.4 mm 2 mps 749 mmHg 82%
18:00 +27°C° 0.4 mm 2 mps 750 mmHg 86%
19:00 +26°C° 0.5 mm 1 mps 750 mmHg 89%
20:00 +25°C° 0.5 mm 1 mps 750 mmHg 92%
21:00 +24°C° 0.5 mm 1 mps 750 mmHg 95%
22:00 +24°C° 0.2 mm 1 mps 751 mmHg 95%
23:00 +24°C° 0.2 mm 1 mps 751 mmHg 95%

Day after tomorrow, 18 July, Saturday

Time Temperature Precipitation Wind Pressure Humidity
00:00 +22°C° 0.2 mm 0 mps 751 mmHg 94%
01:00 +22°C° 0 mm 0 mps 751 mmHg 94%
02:00 +24°C° 0 mm 1 mps 751 mmHg 94%
03:00 +24°C° 0 mm 1 mps 751 mmHg 93%
04:00 +24°C° 0 mm 1 mps 751 mmHg 92%
05:00 +24°C° 0 mm 1 mps 751 mmHg 91%
06:00 +24°C° 0 mm 1 mps 751 mmHg 90%
07:00 +26°C° 0 mm 1 mps 751 mmHg 84%
08:00 +27°C° 0 mm 1 mps 751 mmHg 77%
09:00 +29°C° 0 mm 1 mps 751 mmHg 70%
10:00 +30°C° 0 mm 2 mps 751 mmHg 67%
11:00 +31°C° 0 mm 2 mps 750 mmHg 65%
12:00 +33°C° 0 mm 3 mps 750 mmHg 62%
13:00 +33°C° 0 mm 3 mps 750 mmHg 62%
14:00 +33°C° 0 mm 4 mps 750 mmHg 63%
15:00 +33°C° 0 mm 4 mps 750 mmHg 63%
16:00 +32°C° 0 mm 4 mps 750 mmHg 68%
17:00 +31°C° 0 mm 3 mps 750 mmHg 73%
18:00 +30°C° 0 mm 3 mps 750 mmHg 78%
19:00 +28°C° 0 mm 2 mps 750 mmHg 82%
20:00 +27°C° 0 mm 2 mps 751 mmHg 86%
21:00 +25°C° 0 mm 1 mps 751 mmHg 90%
22:00 +25°C° 0 mm 1 mps 751 mmHg 88%
23:00 +24°C° 0 mm 1 mps 751 mmHg 85%

19 July, Sunday

Time Temperature Precipitation Wind Pressure Humidity
00:00 +24°C° 0 mm 1 mps 750 mmHg 83%
01:00 +24°C° 0 mm 1 mps 750 mmHg 80%
02:00 +24°C° 0 mm 1 mps 750 mmHg 77%
03:00 +24°C° 0 mm 1 mps 750 mmHg 75%
04:00 +24°C° 0 mm 1 mps 750 mmHg 73%
05:00 +25°C° 0 mm 1 mps 750 mmHg 71%
06:00 +26°C° 0 mm 1 mps 750 mmHg 70%
07:00 +28°C° 0 mm 1 mps 749 mmHg 66%
08:00 +30°C° 0 mm 1 mps 749 mmHg 62%
09:00 +32°C° 0 mm 2 mps 749 mmHg 58%
10:00 +32°C° 0 mm 2 mps 749 mmHg 58%
11:00 +34°C° 0 mm 2 mps 749 mmHg 59%
12:00 +35°C° 0 mm 3 mps 749 mmHg 59%
13:00 +35°C° 0.1 mm 3 mps 749 mmHg 59%
14:00 +35°C° 0.1 mm 3 mps 749 mmHg 58%
15:00 +35°C° 0.1 mm 4 mps 749 mmHg 58%
16:00 +34°C° 0.1 mm 3 mps 749 mmHg 63%
17:00 +33°C° 0.1 mm 3 mps 749 mmHg 68%
18:00 +31°C° 0.1 mm 2 mps 749 mmHg 73%
19:00 +30°C° 0 mm 2 mps 750 mmHg 79%
20:00 +28°C° 0 mm 1 mps 750 mmHg 85%
21:00 +24°C° 0 mm 0 mps 751 mmHg 91%
22:00 +26°C° 0.1 mm 1 mps 751 mmHg 91%
23:00 +26°C° 0.1 mm 1 mps 751 mmHg 90%

20 July, Monday

Time Temperature Precipitation Wind Pressure Humidity
00:00 +25°C° 0.1 mm 1 mps 751 mmHg 89%
01:00 +25°C° 0 mm 1 mps 750 mmHg 88%
02:00 +25°C° 0 mm 1 mps 750 mmHg 87%
03:00 +25°C° 0 mm 1 mps 750 mmHg 86%
04:00 +26°C° 0 mm 1 mps 750 mmHg 84%
05:00 +26°C° 0 mm 1 mps 750 mmHg 83%
06:00 +26°C° 0 mm 1 mps 750 mmHg 81%
07:00 +29°C° 0 mm 1 mps 750 mmHg 73%
08:00 +31°C° 0 mm 1 mps 750 mmHg 66%
09:00 +33°C° 0 mm 1 mps 750 mmHg 58%
10:00 +35°C° 0 mm 2 mps 749 mmHg 58%
11:00 +35°C° 0 mm 2 mps 749 mmHg 57%
12:00 +36°C° 0 mm 3 mps 749 mmHg 57%
13:00 +36°C° 0 mm 3 mps 749 mmHg 57%
14:00 +36°C° 0 mm 3 mps 749 mmHg 58%
15:00 +36°C° 0 mm 3 mps 749 mmHg 58%
16:00 +35°C° 0 mm 3 mps 748 mmHg 64%
17:00 +34°C° 0 mm 2 mps 748 mmHg 70%
18:00 +32°C° 0 mm 2 mps 748 mmHg 75%
19:00 +31°C° 0 mm 2 mps 748 mmHg 78%
20:00 +29°C° 0 mm 2 mps 748 mmHg 81%
21:00 +27°C° 0 mm 2 mps 749 mmHg 84%
22:00 +27°C° 0 mm 2 mps 748 mmHg 82%
23:00 +27°C° 0 mm 2 mps 748 mmHg 80%

21 July, Tuesday

Time Temperature Precipitation Wind Pressure Humidity
00:00 +26°C° 0 mm 1 mps 748 mmHg 78%
01:00 +26°C° 0 mm 1 mps 748 mmHg 78%
02:00 +26°C° 0 mm 1 mps 748 mmHg 77%
03:00 +26°C° 0 mm 1 mps 748 mmHg 77%
04:00 +26°C° 0.2 mm 1 mps 748 mmHg 78%
05:00 +26°C° 0.2 mm 1 mps 748 mmHg 79%
06:00 +26°C° 0.2 mm 1 mps 748 mmHg 80%
07:00 +27°C° 0.3 mm 1 mps 748 mmHg 82%
08:00 +27°C° 0.3 mm 1 mps 748 mmHg 84%
09:00 +28°C° 0.3 mm 1 mps 748 mmHg 85%
10:00 +28°C° 0.8 mm 1 mps 748 mmHg 88%
11:00 +28°C° 0.8 mm 2 mps 748 mmHg 91%
12:00 +28°C° 0.8 mm 2 mps 748 mmHg 94%
13:00 +27°C° 0.8 mm 2 mps 748 mmHg 94%
14:00 +27°C° 0.8 mm 1 mps 749 mmHg 94%
15:00 +27°C° 0.8 mm 1 mps 749 mmHg 94%
16:00 +27°C° 0.2 mm 1 mps 749 mmHg 93%
17:00 +27°C° 0.2 mm 1 mps 749 mmHg 92%
18:00 +27°C° 0.2 mm 1 mps 749 mmHg 90%
19:00 +26°C° 0.2 mm 1 mps 749 mmHg 92%
20:00 +26°C° 0.2 mm 1 mps 749 mmHg 93%
21:00 +25°C° 0.2 mm 1 mps 750 mmHg 95%
22:00 +25°C° 0.5 mm 2 mps 750 mmHg 95%
23:00 +25°C° 0.5 mm 2 mps 750 mmHg 95%
Show more